Location: Hains Lake
(37.8540°N, 99.8578°W)
Time: 14:19:16
(UTC+00:00)

Transit 2A - Pass Details

Date: 23 April 2021
Orbit: 602 x 957 km, 66.7° (Epoch: 13 May)

Event Time Altitude Azimuth Distance (km) Brightness Sun altitude
Rises 12:45:05 0° 210° (SSW) 3,126 8.8 9.2°
Reaches altitude 10° 12:47:32 10° 212° (SSW) 2,155 8.0 9.7°
Maximum altitude 12:52:22 77° 298° (WNW) 677 5.9 10.6°
Drops below altitude 10° 12:56:52 10° 25° (NNE) 2,002 8.7 11.5°
Sets 12:59:04 0° 27° (NNE) 2,886 9.5 11.9°
